Stündliche Wetter Holoshyna

Heute, 21 Juni, Montag

Zeit Temperatur Niederschläge Wind Luftdruck Luftfeuchtigkeit
00:00 +13°C° 0 mm 1 m/S 657 mmHg 97%
01:00 +13°C° 0 mm 1 m/S 657 mmHg 97%
02:00 +12°C° 0 mm 0 m/S 657 mmHg 97%
03:00 +12°C° 0 mm 1 m/S 657 mmHg 97%
04:00 +12°C° 0 mm 1 m/S 656 mmHg 97%
05:00 +11°C° 0 mm 1 m/S 656 mmHg 97%
06:00 +13°C° 0 mm 1 m/S 657 mmHg 92%
07:00 +15°C° 0 mm 1 m/S 657 mmHg 86%
08:00 +16°C° 0 mm 1 m/S 658 mmHg 83%
09:00 +19°C° 0.1 mm 1 m/S 658 mmHg 74%
10:00 +20°C° 0.1 mm 1 m/S 658 mmHg 66%
11:00 +22°C° 0.1 mm 1 m/S 659 mmHg 57%
12:00 +22°C° 0.1 mm 1 m/S 658 mmHg 57%
13:00 +22°C° 0.1 mm 1 m/S 658 mmHg 58%
14:00 +22°C° 0 mm 1 m/S 658 mmHg 58%
15:00 +22°C° 0.3 mm 1 m/S 658 mmHg 62%
16:00 +21°C° 0.3 mm 1 m/S 658 mmHg 66%
17:00 +21°C° 0.3 mm 1 m/S 658 mmHg 70%
18:00 +20°C° 0.3 mm 1 m/S 658 mmHg 78%
19:00 +18°C° 0.3 mm 1 m/S 657 mmHg 85%
20:00 +14°C° 0.3 mm 0 m/S 657 mmHg 92%
21:00 +15°C° 0 mm 1 m/S 657 mmHg 93%
22:00 +14°C° 0 mm 1 m/S 657 mmHg 94%
23:00 +13°C° 0 mm 1 m/S 657 mmHg 95%

Morgen, 22 Juni, Dienstag

Zeit Temperatur Niederschläge Wind Luftdruck Luftfeuchtigkeit
00:00 +13°C° 0 mm 1 m/S 657 mmHg 94%
01:00 +13°C° 0 mm 1 m/S 657 mmHg 94%
02:00 +12°C° 0 mm 1 m/S 657 mmHg 94%
03:00 +12°C° 0 mm 1 m/S 657 mmHg 94%
04:00 +12°C° 0 mm 1 m/S 657 mmHg 94%
05:00 +12°C° 0 mm 1 m/S 657 mmHg 93%
06:00 +14°C° 0 mm 1 m/S 657 mmHg 86%
07:00 +16°C° 0 mm 0 m/S 658 mmHg 79%
08:00 +18°C° 0 mm 0 m/S 659 mmHg 72%
09:00 +20°C° 0 mm 0 m/S 659 mmHg 63%
10:00 +24°C° 0 mm 1 m/S 659 mmHg 55%
11:00 +25°C° 0 mm 1 m/S 660 mmHg 47%
12:00 +26°C° 0 mm 1 m/S 660 mmHg 45%
13:00 +26°C° 0 mm 2 m/S 660 mmHg 44%
14:00 +27°C° 0 mm 2 m/S 660 mmHg 43%
15:00 +25°C° 0.6 mm 2 m/S 660 mmHg 52%
16:00 +24°C° 0.6 mm 2 m/S 660 mmHg 62%
17:00 +22°C° 0.6 mm 1 m/S 660 mmHg 72%
18:00 +21°C° 0.5 mm 1 m/S 659 mmHg 77%
19:00 +20°C° 0.5 mm 1 m/S 659 mmHg 82%
20:00 +16°C° 0.5 mm 0 m/S 659 mmHg 88%
21:00 +15°C° 0.1 mm 0 m/S 659 mmHg 89%
22:00 +16°C° 0.1 mm 1 m/S 659 mmHg 90%
23:00 +15°C° 0.1 mm 1 m/S 659 mmHg 92%

übermorgen, 23 Juni, Mittwoch

Zeit Temperatur Niederschläge Wind Luftdruck Luftfeuchtigkeit
00:00 +15°C° 0 mm 1 m/S 659 mmHg 91%
01:00 +14°C° 0 mm 1 m/S 659 mmHg 91%
02:00 +14°C° 0 mm 1 m/S 659 mmHg 91%
03:00 +14°C° 0 mm 1 m/S 659 mmHg 91%
04:00 +14°C° 0 mm 1 m/S 659 mmHg 91%
05:00 +14°C° 0 mm 1 m/S 659 mmHg 90%
06:00 +15°C° 0 mm 0 m/S 659 mmHg 84%
07:00 +18°C° 0 mm 0 m/S 660 mmHg 77%
08:00 +20°C° 0 mm 0 m/S 661 mmHg 71%
09:00 +21°C° 0.2 mm 0 m/S 661 mmHg 65%
10:00 +22°C° 0.2 mm 0 m/S 662 mmHg 59%
11:00 +26°C° 0.2 mm 1 m/S 662 mmHg 54%
12:00 +26°C° 0.4 mm 1 m/S 662 mmHg 54%
13:00 +26°C° 0.4 mm 1 m/S 662 mmHg 55%
14:00 +26°C° 0.4 mm 1 m/S 662 mmHg 56%
15:00 +25°C° 1.1 mm 1 m/S 662 mmHg 64%
16:00 +24°C° 1.1 mm 1 m/S 662 mmHg 72%
17:00 +22°C° 1.1 mm 1 m/S 662 mmHg 80%
18:00 +21°C° 0.6 mm 1 m/S 662 mmHg 82%
19:00 +18°C° 0.6 mm 0 m/S 662 mmHg 84%
20:00 +17°C° 0.6 mm 0 m/S 661 mmHg 87%
21:00 +16°C° 0.1 mm 0 m/S 661 mmHg 88%
22:00 +16°C° 0.1 mm 1 m/S 661 mmHg 89%
23:00 +16°C° 0.1 mm 1 m/S 661 mmHg 90%

24 Juni, Donnerstag

Zeit Temperatur Niederschläge Wind Luftdruck Luftfeuchtigkeit
00:00 +15°C° 0 mm 1 m/S 661 mmHg 90%
01:00 +15°C° 0 mm 1 m/S 661 mmHg 91%
02:00 +15°C° 0 mm 1 m/S 661 mmHg 91%
03:00 +15°C° 0 mm 1 m/S 661 mmHg 91%
04:00 +15°C° 0 mm 1 m/S 661 mmHg 91%
05:00 +15°C° 0 mm 1 m/S 661 mmHg 91%
06:00 +18°C° 0 mm 1 m/S 662 mmHg 84%
07:00 +18°C° 0 mm 0 m/S 662 mmHg 78%
08:00 +20°C° 0 mm 0 m/S 663 mmHg 72%
09:00 +21°C° 0.1 mm 0 m/S 663 mmHg 67%
10:00 +24°C° 0.1 mm 1 m/S 663 mmHg 62%
11:00 +26°C° 0.1 mm 1 m/S 664 mmHg 56%
12:00 +26°C° 0.6 mm 1 m/S 664 mmHg 57%
13:00 +26°C° 0.6 mm 1 m/S 664 mmHg 57%
14:00 +26°C° 0.6 mm 1 m/S 664 mmHg 58%
15:00 +26°C° 0.7 mm 1 m/S 663 mmHg 60%
16:00 +25°C° 0.7 mm 1 m/S 663 mmHg 62%
17:00 +25°C° 0.7 mm 1 m/S 663 mmHg 63%
18:00 +23°C° 0.8 mm 1 m/S 663 mmHg 72%
19:00 +21°C° 0.8 mm 1 m/S 662 mmHg 80%
20:00 +19°C° 0.8 mm 1 m/S 662 mmHg 88%
21:00 +18°C° 0.1 mm 1 m/S 662 mmHg 89%
22:00 +16°C° 0.1 mm 1 m/S 662 mmHg 90%
23:00 +16°C° 0.1 mm 1 m/S 662 mmHg 91%

25 Juni, Freitag

Zeit Temperatur Niederschläge Wind Luftdruck Luftfeuchtigkeit
00:00 +15°C° 0 mm 1 m/S 661 mmHg 90%
01:00 +15°C° 0 mm 1 m/S 661 mmHg 90%
02:00 +15°C° 0 mm 1 m/S 661 mmHg 90%
03:00 +15°C° 0 mm 1 m/S 661 mmHg 89%
04:00 +15°C° 0 mm 1 m/S 661 mmHg 88%
05:00 +15°C° 0 mm 1 m/S 661 mmHg 88%
06:00 +18°C° 0 mm 1 m/S 661 mmHg 80%
07:00 +21°C° 0 mm 1 m/S 662 mmHg 73%
08:00 +23°C° 0 mm 1 m/S 662 mmHg 65%
09:00 +25°C° 0 mm 1 m/S 663 mmHg 58%
10:00 +26°C° 0 mm 1 m/S 663 mmHg 51%
11:00 +28°C° 0 mm 1 m/S 663 mmHg 44%
12:00 +28°C° 0 mm 1 m/S 663 mmHg 42%
13:00 +29°C° 0 mm 2 m/S 663 mmHg 40%
14:00 +30°C° 0 mm 3 m/S 663 mmHg 38%
15:00 +29°C° 0.1 mm 3 m/S 663 mmHg 43%
16:00 +28°C° 0.1 mm 3 m/S 662 mmHg 48%
17:00 +27°C° 0.1 mm 2 m/S 662 mmHg 54%
18:00 +24°C° 0.6 mm 2 m/S 662 mmHg 65%
19:00 +21°C° 0.6 mm 2 m/S 661 mmHg 77%
20:00 +19°C° 0.6 mm 1 m/S 661 mmHg 89%
21:00 +18°C° 0.2 mm 1 m/S 660 mmHg 89%
22:00 +18°C° 0.2 mm 1 m/S 660 mmHg 89%
23:00 +16°C° 0.2 mm 2 m/S 660 mmHg 90%

26 Juni, Samstag

Zeit Temperatur Niederschläge Wind Luftdruck Luftfeuchtigkeit
00:00 +16°C° 0.2 mm 1 m/S 660 mmHg 90%
01:00 +16°C° 0.2 mm 1 m/S 660 mmHg 90%
02:00 +15°C° 0.2 mm 1 m/S 660 mmHg 90%
03:00 +15°C° 0.5 mm 1 m/S 660 mmHg 90%
04:00 +16°C° 0.5 mm 1 m/S 660 mmHg 91%
05:00 +16°C° 0.5 mm 1 m/S 660 mmHg 91%
06:00 +18°C° 0.2 mm 1 m/S 660 mmHg 88%
07:00 +19°C° 0.2 mm 1 m/S 661 mmHg 85%
08:00 +20°C° 0.2 mm 1 m/S 661 mmHg 83%
09:00 +21°C° 1 mm 1 m/S 661 mmHg 79%
10:00 +22°C° 1 mm 1 m/S 661 mmHg 75%
11:00 +22°C° 1 mm 1 m/S 662 mmHg 72%
12:00 +23°C° 0.9 mm 1 m/S 661 mmHg 69%
13:00 +23°C° 0.9 mm 1 m/S 661 mmHg 66%
14:00 +24°C° 0.9 mm 1 m/S 661 mmHg 63%
15:00 +22°C° 1.8 mm 1 m/S 661 mmHg 71%
16:00 +20°C° 1.8 mm 2 m/S 660 mmHg 79%
17:00 +18°C° 1.8 mm 2 m/S 660 mmHg 87%
18:00 +16°C° 7.9 mm 2 m/S 660 mmHg 90%
19:00 +15°C° 7.9 mm 2 m/S 660 mmHg 93%
20:00 +13°C° 7.9 mm 2 m/S 660 mmHg 97%
21:00 +13°C° 0.1 mm 1 m/S 660 mmHg 95%
22:00 +12°C° 0.1 mm 1 m/S 659 mmHg 93%
23:00 +11°C° 0.1 mm 1 m/S 659 mmHg 92%
Mehr zeigen

Wir brauchen deine Erlaubnis

Meteoprog und unser Service Anbieter werden persönliche Daten aufbewahren, so wie Cookies, Geräte Bezeichnung oder ähnliche Technologien von deinem Gerät und Prozess, so wie Persönliche Daten Inhalte und Werbungen, genauso wie social Media und den Verkehr zu analysieren.

  • Aufbewahrung und/oder Zugang zu deiner Geräte Informationen.

    Cookies, Geräte Bezeichnung oder andere Informationen, können aufbewahrt oder Zugang zu deinem Gerät erhalten, für den Grund, der oben angegeben wird.

  • Personalisierte Werbung und Inhalte, Messungen, Einblick in das Publikum und Produkt Entwicklung.

    Werbungen und Inhalte können personalisiert werden, basierend auf ein Profil. Mehr Daten können besser personalisierte Werbungen und Inhalte hinzufügen. Werbung und Inhalte können gezeigt und gemessen werden. Einblicke über das Publikum, welche die Werbung gesehen haben und den Inhalt, können abgeleitet werden. So wie Daten können genutzt werden, um es zu verbessern oder die Benutzer Erfahrung zu verbessern das System und die Software.

Wenn du “Ich stimme zu” klickst, erlaubst du uns, die Cookies zu benutzen die Geräte Bezeichnung, den Web oder ähnliche Technologien zu benutzen. Deine Settings, können in deinem Gerät bei deinem Browser geändert werden.

Für den bestimmten Zweck, berechtigten Interessen beruhen darauf, mehr als auf den Inhalt. Du kannst mehr darüber in unseren Privaten und Cookie Politik lesen.